Weather History for Millville, NJ

Change the Weather History Date:

Wednesday, October 24, 2012

  Actual Average Record
Temperature  
Mean Temperature 64 °F -  
Max Temperature 78 °F 64 °F 81 °F (2001)
Min Temperature 53 °F 43 °F 21 °F (1969)
Degree Days  
Heating Degree Days 1    
Growing Degree Days 14 (Base 50)    
Moisture  
Dew Point 55 °F    
Average Humidity 78    
Maximum Humidity 96    
Minimum Humidity 52    
Precipitation  
Precipitation 0.00 in - - ()
Sea Level Pressure  
Sea Level Pressure 30.11 in    
Wind  
Wind Speed 2 mph (East)    
Max Wind Speed 10 mph    
Max Gust Speed -    
Visibility 9 miles    
Events      
Averages and records for this station are not official NWS values.
T = Trace of Precipitation, MM = Missing Value Source: NWS Daily Summary

Daily Weather History Graph

Daily Weather History Graph

Search for Another Location

Airport:

Trip Planner

Search our weather history database for the weather conditions in past years. The results will help you decide how hot, cold, wet, or windy it might be!

Date:

Astronomy

Oct. 24, 2012 Rise Set
Actual Time 7:20 AM EDT 6:08 PM EDT
Civil Twilight 6:52 AM EDT 6:35 PM EDT
Nautical Twilight 6:21 AM EDT 7:06 PM EDT
Astronomical Twilight 5:50 AM EDT 7:38 PM EDT
Moon 3:21 PM EDT (10/24) 2:14 AM EDT (10/24)
Length of Visible Light 11h 42m
Length of Day
10h 48m
Waxing Gibbous, 76% of the Moon is Illuminated
Oct 24
Waxing Gibbous
Oct 29
Full
Nov 6
Last Quarter
Nov 13
New
Nov 20
First Quarter

Hourly Weather History & Observations

Time (EDT) Temp. Dew Point Humidity Pressure Visibility Wind Dir Wind Speed Gust Speed Precip Events Conditions
12:54 AM 61.0 °F 51.1 °F 70% 30.08 in 10.0 mi Calm Calm - N/A   Clear
2:54 AM 55.9 °F 52.0 °F 87% 30.08 in 10.0 mi Calm Calm - N/A   Clear
3:54 AM 54.0 °F 52.0 °F 93% 30.07 in 10.0 mi Calm Calm - N/A   Clear
4:54 AM 53.1 °F 52.0 °F 96% 30.08 in 9.0 mi Calm Calm - N/A   Clear
5:54 AM 55.0 °F 53.1 °F 93% 30.10 in 10.0 mi Calm Calm - N/A   Overcast
6:54 AM 54.0 °F 52.0 °F 93% 30.10 in 8.0 mi Calm Calm - N/A   Mostly Cloudy
7:54 AM 54.0 °F 52.0 °F 93% 30.12 in 8.0 mi Calm Calm - N/A   Partly Cloudy
8:54 AM 60.1 °F 55.0 °F 83% 30.12 in 10.0 mi Calm Calm - N/A   Mostly Cloudy
9:54 AM 64.0 °F 54.0 °F 70% 30.13 in 10.0 mi North 5.8 mph - N/A   Scattered Clouds
10:54 AM 66.9 °F 54.0 °F 63% 30.12 in 10.0 mi Calm Calm - N/A   Clear
11:54 AM 70.0 °F 55.0 °F 59% 30.10 in 10.0 mi Calm Calm - N/A   Clear
12:54 PM 73.0 °F 55.0 °F 53% 30.10 in 10.0 mi NW 3.5 mph - N/A   Clear
1:54 PM 73.9 °F 55.0 °F 52% 30.08 in 10.0 mi NE 3.5 mph - N/A   Clear
3:54 PM 75.9 °F 57.9 °F 54% 30.06 in 10.0 mi SW 3.5 mph - N/A   Clear
4:54 PM 73.0 °F 57.9 °F 59% 30.08 in 10.0 mi Variable 3.5 mph - N/A   Clear
5:54 PM 69.1 °F 59.0 °F 70% 30.09 in 10.0 mi Calm Calm - N/A   Clear
6:54 PM 63.0 °F 57.9 °F 84% 30.12 in 10.0 mi SE 8.1 mph - N/A   Clear
7:54 PM 59.0 °F 57.0 °F 93% 30.14 in 7.0 mi ESE 8.1 mph - N/A   Partly Cloudy
8:08 PM 60.8 °F 57.2 °F 88% 30.14 in 7.0 mi East 10.4 mph - N/A   Mostly Cloudy
8:54 PM 60.1 °F 57.9 °F 93% 30.15 in 7.0 mi East 9.2 mph - N/A   Overcast
10:54 PM 60.1 °F 57.0 °F 90% 30.16 in 8.0 mi ESE 6.9 mph - N/A   Overcast
11:54 PM 60.1 °F 57.0 °F 90% 30.17 in 8.0 mi East 6.9 mph - N/A   Overcast